Regional Weather Roundup
Issued by NWS

Home | Current Version | Previous Version | Graphics & Text | Print | Product List | Glossary On
Versions: 1 2 3 4 5 6 7 8 9 10 11 12 13 14 15 16 17 18 19 20 21 22 23 24 25 26 27 28 29 30 31 32 33 34 35 36 37 38 39 40 41 42 43 44 45 46 47 48 49 50
863
ASUS43 KLOT 240808
RWRIL

ILLINOIS REGIONAL WEATHER ROUNDUP
NATIONAL WEATHER SERVICE CHICAGO/ROMEOVILLE IL
300 AM CDT TUE MAY 24 2016

NOTE: "FAIR" INDICATES FEW OR NO CLOUDS BELOW 12,000 FEET WITH NO
SIGNIFICANT WEATHER AND/OR OBSTRUCTIONS TO VISIBILITY.

* THESE STATIONS ARE NOT UNDER NWS QUALITY CONTROL. THEY ALSO MAY NOT
  REPORT WEATHER SUCH AS PRECIPITATION OR FOG.

ILZ001-002-007-009-015-016-024-240900-
NORTHWEST ILLINOIS

CITY           SKY/WX    TMP DP  RH WIND       PRES   REMARKS
MOLINE         PTCLDY    61  49  64 CALM      29.91S
STERLING*      MOCLDY    60  50  69 SE3       29.93S
SAVANNA*       PTCLDY    59  51  75 S6        29.91S
$$

ILZ003-004-008-010-011-017-018-240900-
NORTH CENTRAL ILLINOIS

CITY           SKY/WX    TMP DP  RH WIND       PRES   REMARKS
ROCKFORD       CLOUDY    62  48  60 CALM      29.95S
FREEPORT*      CLOUDY    62  47  60 SW9       29.94S
ROCHELLE*      CLOUDY    57  47  69 S6        29.95R
DE KALB*       PTCLDY    61  49  64 S9        29.96S
$$

ILZ005-006-012>014-019>023-240900-
NORTHEAST ILLINOIS

CITY           SKY/WX    TMP DP  RH WIND       PRES   REMARKS
CHICAGO-OHARE  MOCLDY    67  44  43 S12       29.95R
CHICAGO-MIDWAY CLOUDY    66  43  43 SW7       29.96R
AURORA         CLOUDY    64  48  56 S6        29.96R
LANSING*       CLEAR     57  42  57 S3        29.98R
JOLIET*        CLOUDY    64  48  56 CALM      29.97R
WAUKEGAN       CLEAR     62  44  51 SW10      29.93R
DUPAGE AIRPORT PTCLDY    60  45  57 S5        29.95R
KANKAKEE*      PTCLDY   N/A N/A N/A S5        29.99S
WHEELING       CLOUDY    58  43  57 S5        29.96R
MORRIS*        MOCLDY    63  46  55 CALM      29.95S
ROMEOVILLE*    CLOUDY    60  46  59 S7        29.97R
NORTHERLY ISL    N/A     67  41  38 S7          N/A
NORTHERLY ISL    N/A     67  41  38 S7          N/A
$$

LMZ740>746-240900-
SOUTHERN LAKE MICHIGAN

STATION/POSITION SKY/WX   TEMP    WIND        PRES    VSBY  WAVE
                          AIR SEA DIR/SP/G                  HT/PER
                          (F)     (DEG/KT/KT) (MB)    (MI)  (FT/S)
SOUTHERN BUOY              54 48  170/ 10/ 12 1013.8R         1
WILMETTE HARBOR            63 55  230/ 10/ 12   N/A           1/ 2
HARRISON CRIB              68     190/ 14/ 15   N/A
BURNHAM HARBOR             67     190/  6/  9   N/A
CALUMET HARBOR             65     180/  5/  7 1013.9R
BURNS HARBOR               64     190/  9/ 14 1015.2S
MICHIGAN CITY              66     150/ 13/ 16   N/A
MICHIGAN CITY 6N           60 56  180/  6/  8   N/A           1
ST. JOSEPH                 60 56  170/  8/  8   N/A           1
$$

ILZ025>027-034>036-040-047-049-050-058-095>099-240900-
WEST-CENTRAL ILLINOIS

CITY           SKY/WX    TMP DP  RH WIND       PRES   REMARKS
QUINCY         CLOUDY    67  53  61 S6        29.93F
GALESBURG*     CLOUDY    63  51  67 S5        29.93S
MACOMB*        CLOUDY    66  53  62 S10       29.95S
JACKSONVILLE*  CLOUDY    65  53  65 S5        29.95F
PITTSFIELD*    CLOUDY    63  56  79 S6        29.96S
$$

ILZ028>032-037-038-041>044-048-051>054-059>061-240900-
CENTRAL ILLINOIS

CITY           SKY/WX    TMP DP  RH WIND       PRES   REMARKS
PONTIAC        CLOUDY    65  49  56 S9        29.98S
BLOOMINGTON    CLEAR     61  51  69 S8        30.00R
DECATUR        CLEAR     62  50  64 S6        29.99S
PEORIA         CLOUDY    64  51  62 S6        29.95F
LACON*         PTCLDY    61  49  65 CALM      29.94F
LINCOLN*       CLOUDY    61  55  78 CALM      29.97S
SPRINGFIELD    CLOUDY    62  54  74 S7        29.97S
TAYLORVILLE    CLEAR     60  54  80 S5        29.99R
$$

ILZ033-039-045-046-055>057-062-063-240900-
EAST-CENTRAL ILLINOIS

CITY           SKY/WX    TMP DP  RH WIND       PRES   REMARKS
CHAMPAIGN      CLEAR     59  47  64 S8        30.00R
RANTOUL*       PTCLDY    63  47  55 SE5       29.99S
MATTOON        CLEAR     63  48  58 S5        30.00R
PARIS*         PTCLDY    60  47  62 CALM      30.01F
$$

ILZ079-100>102-240900-
SOUTHWEST ILLINOIS

CITY           SKY/WX    TMP DP  RH WIND       PRES   REMARKS
ALTON          CLOUDY    58  55  88 CALM      29.98S
CAHOKIA*       MOCLDY    63  56  78 CALM      29.97R
SPARTA*        CLOUDY    63  57  81 S3        30.00R
$$

ILZ064>066-069>071-074>076-080>082-084>086-088>090-092>094-240900-
SOUTH-CENTRAL ILLINOIS

CITY           SKY/WX    TMP DP  RH WIND       PRES   REMARKS
CARBONDALE     PTCLDY    59  56  89 CALM      29.99R
CAIRO*         CLOUDY    60  58  94 CALM      29.99R
EFFINGHAM*     CLEAR     56  54  94 CALM      30.02S
MARION         CLOUDY    64  55  72 CALM      30.00R
MT. VERNON     PTCLDY    54  48  82 CALM      30.01R
CENTRALIA*     CLEAR     61  57  87 SE3       29.99R
SALEM*         CLEAR     64  54  70 SE3       29.99S
METROPOLIS*    CLOUDY    59  59 100 CALM      30.01R
$$

ILZ067-068-072-073-078-083-087-091-240900-
SOUTHEAST ILLINOIS

CITY           SKY/WX    TMP DP  RH WIND       PRES   REMARKS
LAWRENCEVILLE  CLEAR     60  52  74 SE3       30.01S
FLORA*         CLEAR     62  53  73 CALM      30.00S
FAIRFIELD*     CLEAR     60  52  75 CALM      29.99S
HARRISBURG*    CLEAR     60  55  85 CALM      30.00S
ROBINSON*      CLOUDY    52  51  95 CALM      30.02S
CARMI*         CLEAR     59  55  87 SE3       30.00S
$$

ABBREVIATIONS USED IN REMARKS
   TC - TEMPERATURE IN CELSIUS
  WCI - WIND CHILL INDEX
   HX - HEAT INDEX
  VSB - VISIBILITY
$$





USA.gov is the U.S. government's official web portal to all federal, state and local government web resources and services.